Location: Unspecified
(35.6961°N, 0.0000°E)
Time: 03:18:46
(UTC+00:00)

Explorer 11/Cluster Stage 4 - Pass Details

Date: 26 May 2019
Orbit: 467 x 1260 km, 28.8° (Epoch: 17 June)

Event Time Altitude Azimuth Distance (km) Brightness Sun altitude
Rises 03:02:57 0° 249° (WSW) 3,487 - -18.2°
Reaches altitude 10° 03:05:58 10° 241° (WSW) 2,399 - -17.7°
Exits shadow 03:09:33 29° 211° (SSW) 1,305 7.1 -17.2°
Maximum altitude 03:11:02 35° 177° (S) 1,108 7.0 -17.0°
Drops below altitude 10° 03:15:11 10° 111° (ESE) 1,952 9.0 -16.4°
Sets 03:17:25 0° 101° (ESE) 2,755 9.9 -16.0°
